Time,TemperatureF,DewpointF,PressureIn,WindDirection,WindDirectionDegrees,WindSpeedMPH,WindSpeedGustMPH,Humidity,HourlyPrecipIn,Conditions,Clouds,dailyrainin,SoftwareType,DateUTC
2013-07-01 00:01:00,80.0,59.0,29.71,West,269,0.0,-999.0,49,-99.99,,,-99.99,,2013-07-01 07:01:00,
2013-07-01 00:11:00,80.0,59.0,29.71,West,269,0.0,-999.0,49,-99.99,,,-99.99,,2013-07-01 07:11:00,
2013-07-01 00:22:00,80.0,60.0,29.71,West,269,0.0,-999.0,50,-99.99,,,-99.99,,2013-07-01 07:22:00,
2013-07-01 00:33:00,79.0,59.0,29.71,West,269,0.0,-999.0,51,-99.99,,,-99.99,,2013-07-01 07:33:00,
2013-07-01 00:43:00,79.0,59.0,29.71,West,269,0.0,-999.0,51,-99.99,,,-99.99,,2013-07-01 07:43:00,
2013-07-01 00:53:00,78.0,58.0,29.71,West,269,0.0,-999.0,51,-99.99,,,-99.99,,2013-07-01 07:53:00,
2013-07-01 01:01:00,78.0,59.0,29.71,West,269,0.0,-999.0,53,-99.99,,,-99.99,,2013-07-01 08:01:00,
2013-07-01 01:11:00,78.0,59.0,29.71,West,269,0.0,-999.0,53,-99.99,,,-99.99,,2013-07-01 08:11:00,
2013-07-01 01:22:00,77.0,59.0,29.71,West,269,0.0,-999.0,54,-99.99,,,-99.99,,2013-07-01 08:22:00,
2013-07-01 01:32:00,77.0,59.0,29.72,West,269,0.0,-999.0,54,-99.99,,,-99.99,,2013-07-01 08:32:00,
2013-07-01 01:42:00,77.0,59.0,29.72,West,269,0.0,-999.0,54,-99.99,,,-99.99,,2013-07-01 08:42:00,
2013-07-01 01:52:00,76.0,59.0,29.72,West,269,0.0,-999.0,55,-99.99,,,-99.99,,2013-07-01 08:52:00,
2013-07-01 02:01:00,76.0,59.0,29.72,West,269,0.0,-999.0,56,-99.99,,,-99.99,,2013-07-01 09:01:00,
2013-07-01 02:11:00,76.0,59.0,29.72,West,269,0.0,-999.0,56,-99.99,,,-99.99,,2013-07-01 09:11:00,
2013-07-01 02:22:00,75.0,59.0,29.72,West,269,0.0,-999.0,57,-99.99,,,-99.99,,2013-07-01 09:22:00,
2013-07-01 02:33:00,75.0,59.0,29.72,West,269,0.0,-999.0,57,-99.99,,,-99.99,,2013-07-01 09:33:00,
2013-07-01 02:43:00,75.0,59.0,29.72,West,269,0.0,-999.0,57,-99.99,,,-99.99,,2013-07-01 09:43:00,
2013-07-01 02:53:00,74.0,58.0,29.72,West,269,0.0,-999.0,57,-99.99,,,-99.99,,2013-07-01 09:53:00,
2013-07-01 03:03:00,74.0,58.0,29.72,West,269,0.0,-999.0,58,-99.99,,,-99.99,,2013-07-01 10:03:00,
2013-07-01 03:11:00,74.0,58.0,29.72,West,269,0.0,-999.0,58,-99.99,,,-99.99,,2013-07-01 10:11:00,
2013-07-01 03:22:00,73.0,58.0,29.73,West,269,0.0,-999.0,59,-99.99,,,-99.99,,2013-07-01 10:22:00,
2013-07-01 03:33:00,73.0,58.0,29.73,West,269,0.0,-999.0,59,-99.99,,,-99.99,,2013-07-01 10:33:00,
2013-07-01 03:42:00,73.0,58.0,29.73,West,269,0.0,-999.0,59,-99.99,,,-99.99,,2013-07-01 10:42:00,
2013-07-01 03:52:00,73.0,58.0,29.74,WSW,242,0.0,-999.0,59,-99.99,,,-99.99,,2013-07-01 10:52:00,
2013-07-01 04:02:00,72.0,57.0,29.73,WSW,239,0.0,-999.0,60,-99.99,,,-99.99,,2013-07-01 11:02:00,
2013-07-01 04:11:00,72.0,57.0,29.73,WSW,239,0.0,-999.0,60,-99.99,,,-99.99,,2013-07-01 11:11:00,
2013-07-01 04:22:00,72.0,58.0,29.74,WSW,238,0.0,-999.0,61,-99.99,,,-99.99,,2013-07-01 11:22:00,
2013-07-01 04:33:00,71.0,57.0,29.74,WSW,238,0.0,-999.0,62,-99.99,,,-99.99,,2013-07-01 11:33:00,
2013-07-01 04:43:00,71.0,57.0,29.74,WSW,238,0.0,-999.0,62,-99.99,,,-99.99,,2013-07-01 11:43:00,
2013-07-01 04:52:00,71.0,58.0,29.74,WSW,238,0.0,-999.0,63,-99.99,,,-99.99,,2013-07-01 11:52:00,
2013-07-01 05:01:00,71.0,58.0,29.74,WSW,238,0.0,-999.0,64,-99.99,,,-99.99,,2013-07-01 12:01:00,
2013-07-01 05:11:00,71.0,58.0,29.74,WSW,238,0.0,-999.0,64,-99.99,,,-99.99,,2013-07-01 12:11:00,
2013-07-01 05:21:00,70.0,57.0,29.74,South,169,0.0,-999.0,64,-99.99,,,-99.99,,2013-07-01 12:21:00,
2013-07-01 05:33:00,70.0,58.0,29.75,South,169,0.0,-999.0,65,-99.99,,,-99.99,,2013-07-01 12:33:00,
2013-07-01 05:43:00,70.0,58.0,29.75,South,169,0.0,-999.0,65,-99.99,,,-99.99,,2013-07-01 12:43:00,
2013-07-01 05:53:00,70.0,58.0,29.75,South,169,0.0,-999.0,66,-99.99,,,-99.99,,2013-07-01 12:53:00,
2013-07-01 06:01:00,69.0,57.0,29.75,South,169,0.0,-999.0,66,-99.99,,,-99.99,,2013-07-01 13:01:00,
2013-07-01 06:12:00,69.0,57.0,29.75,South,169,0.0,-999.0,66,-99.99,,,-99.99,,2013-07-01 13:12:00,
2013-07-01 06:23:00,69.0,57.0,29.76,South,169,0.0,-999.0,66,-99.99,,,-99.99,,2013-07-01 13:23:00,
2013-07-01 06:33:00,69.0,58.0,29.76,SSE,168,0.0,-999.0,67,-99.99,,,-99.99,,2013-07-01 13:33:00,
2013-07-01 06:43:00,69.0,58.0,29.76,SSE,168,0.0,-999.0,67,-99.99,,,-99.99,,2013-07-01 13:43:00,
2013-07-01 06:53:00,69.0,58.0,29.76,SSE,168,0.0,-999.0,67,-99.99,,,-99.99,,2013-07-01 13:53:00,
2013-07-01 07:01:00,69.0,58.0,29.76,SSE,168,0.0,-999.0,67,-99.99,,,-99.99,,2013-07-01 14:01:00,
2013-07-01 07:11:00,69.0,58.0,29.76,SSE,168,0.0,-999.0,67,-99.99,,,-99.99,,2013-07-01 14:11:00,
2013-07-01 07:22:00,69.0,58.0,29.77,SSE,168,0.0,-999.0,68,-99.99,,,-99.99,,2013-07-01 14:22:00,
2013-07-01 07:34:00,70.0,59.0,29.77,SSE,168,0.0,-999.0,67,-99.99,,,-99.99,,2013-07-01 14:34:00,
2013-07-01 07:43:00,70.0,59.0,29.77,SSE,168,0.0,-999.0,67,-99.99,,,-99.99,,2013-07-01 14:43:00,
2013-07-01 07:53:00,72.0,59.0,29.77,SSE,168,0.0,-999.0,64,-99.99,,,-99.99,,2013-07-01 14:53:00,
2013-07-01 08:01:00,73.0,59.0,29.77,SSE,168,0.0,-999.0,62,-99.99,,,-99.99,,2013-07-01 15:01:00,
2013-07-01 08:11:00,73.0,59.0,29.77,SSE,168,0.0,-999.0,62,-99.99,,,-99.99,,2013-07-01 15:11:00,
2013-07-01 08:23:00,73.0,58.0,29.78,SSE,168,0.0,-999.0,60,-99.99,,,-99.99,,2013-07-01 15:23:00,
2013-07-01 08:33:00,74.0,59.0,29.78,SSE,168,0.0,-999.0,60,-99.99,,,-99.99,,2013-07-01 15:33:00,
2013-07-01 08:43:00,74.0,59.0,29.78,SSE,168,0.0,-999.0,60,-99.99,,,-99.99,,2013-07-01 15:43:00,
2013-07-01 08:52:00,76.0,61.0,29.78,SSE,168,0.0,-999.0,59,-99.99,,,-99.99,,2013-07-01 15:52:00,
2013-07-01 09:01:00,77.0,59.0,29.78,SSE,168,0.0,-999.0,54,-99.99,,,-99.99,,2013-07-01 16:01:00,
2013-07-01 09:11:00,77.0,59.0,29.78,SSE,168,0.0,-999.0,54,-99.99,,,-99.99,,2013-07-01 16:11:00,
2013-07-01 09:22:00,79.0,60.0,29.78,SSE,167,0.0,-999.0,52,-99.99,,,-99.99,,2013-07-01 16:22:00,
2013-07-01 09:33:00,80.0,60.0,29.78,SSE,167,0.0,-999.0,50,-99.99,,,-99.99,,2013-07-01 16:33:00,
2013-07-01 09:43:00,80.0,60.0,29.78,SSE,167,0.0,-999.0,50,-99.99,,,-99.99,,2013-07-01 16:43:00,
2013-07-01 09:53:00,82.0,60.0,29.78,SSE,167,0.0,-999.0,47,-99.99,,,-99.99,,2013-07-01 16:53:00,
2013-07-01 10:02:00,83.0,61.0,29.78,SSE,167,0.0,-999.0,48,-99.99,,,-99.99,,2013-07-01 17:02:00,
2013-07-01 10:12:00,83.0,61.0,29.78,SSE,167,0.0,-999.0,48,-99.99,,,-99.99,,2013-07-01 17:12:00,
2013-07-01 10:23:00,84.0,62.0,29.78,SSE,167,0.0,-999.0,47,-99.99,,,-99.99,,2013-07-01 17:23:00,
2013-07-01 10:33:00,85.0,61.0,29.78,WNW,293,1.0,-999.0,45,-99.99,,,-99.99,,2013-07-01 17:33:00,
2013-07-01 10:43:00,85.0,61.0,29.78,WNW,293,1.0,-999.0,45,-99.99,,,-99.99,,2013-07-01 17:43:00,
2013-07-01 10:53:00,87.0,62.0,29.78,North,11,0.0,-999.0,44,-99.99,,,-99.99,,2013-07-01 17:53:00,
2013-07-01 11:02:00,88.0,63.0,29.78,NW,319,2.0,-999.0,43,-99.99,,,-99.99,,2013-07-01 18:02:00,
2013-07-01 11:11:00,88.0,63.0,29.78,NW,319,2.0,-999.0,43,-99.99,,,-99.99,,2013-07-01 18:11:00,
2013-07-01 11:22:00,89.0,64.0,29.78,WNW,296,2.0,-999.0,43,-99.99,,,-99.99,,2013-07-01 18:22:00,
2013-07-01 11:33:00,90.0,63.0,29.78,WNW,296,1.0,-999.0,41,-99.99,,,-99.99,,2013-07-01 18:33:00,
2013-07-01 11:43:00,90.0,63.0,29.78,WNW,296,1.0,-999.0,41,-99.99,,,-99.99,,2013-07-01 18:43:00,
2013-07-01 11:53:00,92.0,63.0,29.78,WNW,298,2.0,-999.0,38,-99.99,,,-99.99,,2013-07-01 18:53:00,
2013-07-01 12:01:00,94.0,64.0,29.77,WNW,297,1.0,-999.0,38,-99.99,,,-99.99,,2013-07-01 19:01:00,
2013-07-01 12:11:00,94.0,64.0,29.77,WNW,297,1.0,-999.0,38,-99.99,,,-99.99,,2013-07-01 19:11:00,
2013-07-01 12:33:00,95.0,63.0,29.78,NW,319,2.0,-999.0,35,-99.99,,,-99.99,,2013-07-01 19:33:00,
2013-07-01 12:44:00,96.0,64.0,29.78,WNW,295,2.0,-999.0,35,-99.99,,,-99.99,,2013-07-01 19:44:00,
2013-07-01 12:52:00,96.0,65.0,29.78,WNW,284,3.0,-999.0,36,-99.99,,,-99.99,,2013-07-01 19:52:00,
2013-07-01 13:01:00,97.0,65.0,29.77,NNW,331,3.0,-999.0,35,-99.99,,,-99.99,,2013-07-01 20:01:00,
2013-07-01 13:11:00,97.0,65.0,29.77,NNW,331,3.0,-999.0,35,-99.99,,,-99.99,,2013-07-01 20:11:00,
2013-07-01 13:21:00,98.0,65.0,29.77,NW,318,3.0,-999.0,34,-99.99,,,-99.99,,2013-07-01 20:21:00,
2013-07-01 13:33:00,98.0,66.0,29.77,NW,325,3.0,-999.0,35,-99.99,,,-99.99,,2013-07-01 20:33:00,
2013-07-01 13:43:00,98.0,66.0,29.77,NW,325,3.0,-999.0,35,-99.99,,,-99.99,,2013-07-01 20:43:00,
2013-07-01 13:52:00,99.0,66.0,29.77,North,355,3.0,-999.0,34,-99.99,,,-99.99,,2013-07-01 20:52:00,
2013-07-01 14:01:00,100.0,65.0,29.76,WNW,302,2.0,-999.0,32,-99.99,,,-99.99,,2013-07-01 21:01:00,
2013-07-01 14:11:00,100.0,65.0,29.76,WNW,302,2.0,-999.0,32,-99.99,,,-99.99,,2013-07-01 21:11:00,
2013-07-01 14:23:00,100.0,62.0,29.76,North,5,2.0,-999.0,29,-99.99,,,-99.99,,2013-07-01 21:23:00,
2013-07-01 14:34:00,100.0,62.0,29.76,North,5,2.0,-999.0,29,-99.99,,,-99.99,,2013-07-01 21:34:00,
2013-07-01 14:43:00,102.0,64.0,29.76,WNW,300,2.0,-999.0,29,-99.99,,,-99.99,,2013-07-01 21:43:00,
2013-07-01 14:53:00,102.0,64.0,29.75,WNW,288,1.0,-999.0,29,-99.99,,,-99.99,,2013-07-01 21:53:00,
2013-07-01 15:01:00,103.0,61.0,29.75,WNW,292,3.0,-999.0,26,-99.99,,,-99.99,,2013-07-01 22:01:00,
2013-07-01 15:11:00,103.0,61.0,29.75,WNW,292,3.0,-999.0,26,-99.99,,,-99.99,,2013-07-01 22:11:00,
2013-07-01 15:23:00,103.0,64.0,29.75,NW,306,4.0,-999.0,28,-99.99,,,-99.99,,2013-07-01 22:23:00,
2013-07-01 15:32:00,103.0,62.0,29.74,WNW,302,3.0,-999.0,27,-99.99,,,-99.99,,2013-07-01 22:32:00,
2013-07-01 15:42:00,103.0,62.0,29.74,WNW,302,3.0,-999.0,27,-99.99,,,-99.99,,2013-07-01 22:42:00,
2013-07-01 15:53:00,104.0,65.0,29.74,WNW,301,2.0,-999.0,29,-99.99,,,-99.99,,2013-07-01 22:53:00,
2013-07-01 16:01:00,104.0,59.0,29.75,NW,314,2.0,-999.0,23,-99.99,,,-99.99,,2013-07-01 23:01:00,
2013-07-01 16:11:00,104.0,59.0,29.75,NW,314,2.0,-999.0,23,-99.99,,,-99.99,,2013-07-01 23:11:00,
2013-07-01 16:22:00,105.0,63.0,29.75,WNW,294,0.0,-999.0,26,-99.99,,,-99.99,,2013-07-01 23:22:00,
2013-07-01 16:33:00,105.0,63.0,29.75,WNW,294,0.0,-999.0,26,-99.99,,,-99.99,,2013-07-01 23:33:00,
2013-07-01 16:43:00,105.0,58.0,29.75,WNW,300,1.0,-999.0,22,-99.99,,,-99.99,,2013-07-01 23:43:00,
2013-07-01 16:53:00,106.0,59.0,29.75,NW,311,0.0,-999.0,22,-99.99,,,-99.99,,2013-07-01 23:53:00,
2013-07-01 17:01:00,106.0,60.0,29.75,WNW,295,0.0,-999.0,23,-99.99,,,-99.99,,2013-07-02 00:01:00,
2013-07-01 17:11:00,106.0,60.0,29.75,WNW,295,0.0,-999.0,23,-99.99,,,-99.99,,2013-07-02 00:11:00,
2013-07-01 17:22:00,107.0,56.0,29.74,NE,53,1.0,-999.0,19,-99.99,,,-99.99,,2013-07-02 00:22:00,
2013-07-01 17:43:00,107.0,50.0,29.73,WNW,302,0.0,-999.0,15,-99.99,,,-99.99,,2013-07-02 00:43:00,
2013-07-01 17:53:00,107.0,53.0,29.73,NW,315,1.0,-999.0,17,-99.99,,,-99.99,,2013-07-02 00:53:00,
2013-07-01 18:01:00,106.0,57.0,29.72,NW,315,0.0,-999.0,20,-99.99,,,-99.99,,2013-07-02 01:01:00,
2013-07-01 18:11:00,106.0,57.0,29.72,NW,315,0.0,-999.0,20,-99.99,,,-99.99,,2013-07-02 01:11:00,
2013-07-01 18:22:00,105.0,51.0,29.73,NW,315,0.0,-999.0,17,-99.99,,,-99.99,,2013-07-02 01:22:00,
2013-07-01 18:33:00,105.0,58.0,29.72,NW,315,0.0,-999.0,22,-99.99,,,-99.99,,2013-07-02 01:33:00,
2013-07-01 18:43:00,105.0,58.0,29.72,NW,315,0.0,-999.0,22,-99.99,,,-99.99,,2013-07-02 01:43:00,
2013-07-01 18:53:00,104.0,56.0,29.72,NW,315,0.0,-999.0,21,-99.99,,,-99.99,,2013-07-02 01:53:00,
2013-07-01 19:01:00,103.0,60.0,29.72,NW,315,0.0,-999.0,25,-99.99,,,-99.99,,2013-07-02 02:01:00,
2013-07-01 19:11:00,103.0,60.0,29.72,NW,315,0.0,-999.0,25,-99.99,,,-99.99,,2013-07-02 02:11:00,
2013-07-01 20:01:00,98.0,60.0,29.72,NW,315,0.0,-999.0,29,-99.99,,,-99.99,,2013-07-02 03:01:00,
2013-07-01 20:11:00,98.0,60.0,29.72,NW,315,0.0,-999.0,29,-99.99,,,-99.99,,2013-07-02 03:11:00,
2013-07-01 20:24:00,98.0,61.0,29.72,NW,315,0.0,-999.0,30,-99.99,,,-99.99,,2013-07-02 03:24:00,
2013-07-01 20:32:00,97.0,63.0,29.73,NW,315,0.0,-999.0,33,-99.99,,,-99.99,,2013-07-02 03:32:00,
2013-07-01 20:43:00,97.0,63.0,29.73,NW,315,0.0,-999.0,33,-99.99,,,-99.99,,2013-07-02 03:43:00,
2013-07-01 20:53:00,95.0,63.0,29.73,NW,315,0.0,-999.0,35,-99.99,,,-99.99,,2013-07-02 03:53:00,
2013-07-01 21:01:00,95.0,63.0,29.74,NW,315,0.0,-999.0,35,-99.99,,,-99.99,,2013-07-02 04:01:00,
2013-07-01 21:11:00,95.0,63.0,29.74,NW,315,0.0,-999.0,35,-99.99,,,-99.99,,2013-07-02 04:11:00,
2013-07-01 21:21:00,93.0,62.0,29.74,NW,315,0.0,-999.0,36,-99.99,,,-99.99,,2013-07-02 04:21:00,
2013-07-01 21:32:00,93.0,62.0,29.74,NW,315,0.0,-999.0,36,-99.99,,,-99.99,,2013-07-02 04:32:00,
2013-07-01 21:42:00,93.0,62.0,29.74,NW,315,0.0,-999.0,36,-99.99,,,-99.99,,2013-07-02 04:42:00,
2013-07-01 21:53:00,93.0,62.0,29.74,NW,315,0.0,-999.0,36,-99.99,,,-99.99,,2013-07-02 04:53:00,
2013-07-01 22:01:00,92.0,64.0,29.75,NW,315,0.0,-999.0,40,-99.99,,,-99.99,,2013-07-02 05:01:00,
2013-07-01 22:11:00,91.0,64.0,29.75,NW,315,0.0,-999.0,41,-99.99,,,-99.99,,2013-07-02 05:11:00,
2013-07-01 22:22:00,90.0,65.0,29.75,NW,315,0.0,-999.0,44,-99.99,,,-99.99,,2013-07-02 05:22:00,
2013-07-01 22:32:00,89.0,65.0,29.76,NW,315,0.0,-999.0,46,-99.99,,,-99.99,,2013-07-02 05:32:00,
2013-07-01 22:43:00,89.0,65.0,29.76,NW,315,0.0,-999.0,46,-99.99,,,-99.99,,2013-07-02 05:43:00,
2013-07-01 22:52:00,88.0,66.0,29.76,NW,315,0.0,-999.0,48,-99.99,,,-99.99,,2013-07-02 05:52:00,
2013-07-01 23:01:00,87.0,65.0,29.75,NW,315,0.0,-999.0,48,-99.99,,,-99.99,,2013-07-02 06:01:00,
2013-07-01 23:11:00,87.0,65.0,29.75,NW,315,0.0,-999.0,48,-99.99,,,-99.99,,2013-07-02 06:11:00,
2013-07-01 23:23:00,87.0,66.0,29.75,NW,315,0.0,-999.0,50,-99.99,,,-99.99,,2013-07-02 06:23:00,
2013-07-01 23:33:00,86.0,66.0,29.75,NW,315,0.0,-999.0,51,-99.99,,,-99.99,,2013-07-02 06:33:00,
2013-07-01 23:43:00,86.0,66.0,29.75,NW,315,0.0,-999.0,51,-99.99,,,-99.99,,2013-07-02 06:43:00,
2013-07-01 23:53:00,85.0,66.0,29.76,NW,315,0.0,-999.0,54,-99.99,,,-99.99,,2013-07-02 06:53:00,